Location: Rostock
(54.0884°N, 12.1234°E)
Time: 06:07:50
(UTC+02:00)

ISS - Visible Passes

Search period start: 26 May 2018 00:00
Search period end: 05 June 2018 00:00
Orbit: 402 x 407 km, 51.6° (Epoch: 26 May)

Date Brightness Start Highest point End Pass type
(mag) Time Alt. Az. Time Alt. Az. Time Alt. Az.
26 May -3.2 01:14:10 10° W 01:17:10 34° SSW 01:17:15 34° SSW visible
26 May -3.7 22:45:37 10° WSW 22:48:50 54° S 22:52:02 10° E visible
27 May -3.5 00:21:57 10° W 00:25:05 43° SSW 00:26:26 27° SE visible
27 May -1.4 01:58:54 10° WSW 01:59:03 11° WSW 01:59:03 11° WSW visible
27 May -3.7 23:29:45 10° W 23:32:58 51° S 23:35:42 13° ESE visible
28 May -2.3 01:06:23 10° W 01:08:20 21° SW 01:08:20 21° SW visible
28 May -3.7 22:37:34 10° W 22:40:47 55° S 22:44:00 10° ESE visible
29 May -3.0 00:14:02 10° W 00:16:58 31° SSW 00:17:40 27° S visible
29 May -3.3 23:21:45 10° W 23:24:51 39° SSW 23:27:04 16° SE visible
30 May -1.5 00:58:54 10° WSW 00:59:41 13° WSW 00:59:41 13° WSW visible
30 May -3.5 22:29:31 10° W 22:32:41 48° S 22:35:52 10° ESE visible
31 May -2.3 00:06:13 10° W 00:08:42 20° SSW 00:09:05 20° SSW visible
31 May -2.7 23:13:47 10° W 23:16:38 28° SSW 23:18:31 16° SSE visible
01 Jun -1.6 23:58:53 10° WSW 00:00:19 12° SW 00:00:36 12° SSW visible
02 Jun -2.0 23:05:58 10° WSW 23:08:17 18° SSW 23:10:05 12° S visible
04 Jun -1.3 22:59:02 10° SW 22:59:46 11° SW 23:00:30 10° SSW visible
